Regional Weather Roundup
Issued by NWS

Home | Current Version | Previous Version | Text Only | Print | Product List | Glossary Off
Versions: 1 2 3 4 5 6 7 8 9 10 11 12 13 14 15 16 17 18 19 20 21 22 23 24 25 26 27

000
ASUS45 KCYS 212110
RWRWY

WYOMING REGIONAL WEATHER ROUNDUP
NATIONAL WEATHER SERVICE CHEYENNE WY
300 PM MDT MON AUG 21 2017

NOTE:  "FAIR" INDICATES FEW OR NO CLOUDS BELOW 12,000 FEET
WITH NO SIGNIFICANT WEATHER AND/OR OBSTRUCTIONS TO VISIBILITY.

WYZ001-212200-
YELLOWSTONE NATIONAL PARK

CITY           SKY/WX    TMP DP  RH WIND       PRES   REMARKS
LK YELLOWSTONE   N/A     67  41  38 E3        30.37F
W YELLOWSTONE  NOT AVBL

$$
WYZ002>013-054>058-071-098>099-212200-
NORTHERN WYOMING

CITY           SKY/WX    TMP DP  RH WIND       PRES   REMARKS
JACKSON        FAIR      77  27  15 VRB5      30.27F
CODY           FAIR      73  35  25 NE7       30.22F
GREYBULL       FAIR      83  29  14 VRB3      30.12F
WORLAND        FAIR      80  38  22 CALM      30.14F
SHERIDAN       FAIR      79  30  16 N6        30.18F
BUFFALO        FAIR      76  30  18 CALM      30.23F
GILLETTE       FAIR      78  31  17 N7        30.18F
HULETT         FAIR      75  36  23 N10G17    30.20S
NEWCASTLE      FAIR      77  30  18 N10G18    30.16F

$$
WYZ014>020-022>026-101>103-212200-
CENTRAL WYOMING

CITY           SKY/WX    TMP DP  RH WIND       PRES   REMARKS
BIG PINEY      FAIR      78  32  18 VRB6      30.30F
PINEDALE       FAIR      77  28  16 W8G17     30.31F
DUBOIS         FAIR      79  18  10 NW16G23   30.27F
LANDER           N/A    N/A N/A N/A MISG      30.17F
RIVERTON       FAIR      78  36  21 E8        30.18F
CASPER         FAIR      79  35  20 NE9       30.21F
DOUGLAS        FAIR      75  40  28 N10       30.21S

$$
WYZ021-027>030-104>119-212200-
SOUTHERN WYOMING

CITY           SKY/WX    TMP DP  RH WIND       PRES   REMARKS
EVANSTON       FAIR      82  35  18 SW12G20   30.31F
KEMMERER         N/A     79  28  15 NW12G20   30.33F
FORT BRIDGER   FAIR      85  29  13 W10G20    30.33F
ROCK SPRINGS   FAIR      83  29  14 W9        30.27F
RAWLINS        FAIR      82  30  15 NW10      30.26F
SARATOGA       FAIR      81  32  17 NE7       30.29F
LARAMIE        FAIR      78  34  20 N12       30.29F
CHEYENNE       FAIR      77  37  23 N13G23    30.24S
TORRINGTON     FAIR      81  51  35 E13G18    30.12S
PINE BLUFFS    FAIR      79  52  38 N17G24    30.18F

$$




USA.gov is the U.S. government's official web portal to all federal, state and local government web resources and services.